This is the latest recevied weather packets stored in our database for station/object RN1M-13. If no packets are shown the sender has not sent any weather packets the latest 10 day(s).
| Time | Temp. | Humidity | Pressure | Rain* | Wind** | Luminosity | Snow |
|---|---|---|---|---|---|---|---|
| 1777773704 | 11.67° C | 100% | 1005.8 hPa | - | - | - | - |
| 1777772809 | 11.67° C | 100% | 1005.8 hPa | - | - | - | - |
| 1777771909 | 11.67° C | 100% | 1005.7 hPa | - | - | - | - |
| 1777768308 | 10.56° C | 100% | 1005.7 hPa | - | - | - | - |
| 1777767408 | 11.11° C | 100% | 1005.8 hPa | - | - | - | - |
| 1777763808 | 11.11° C | 100% | 1006.3 hPa | - | - | - | - |
| 1777761116 | 12.78° C | 100% | 1007 hPa | - | - | - | - |
| 1777760216 | 13.33° C | 100% | 1007.1 hPa | - | - | - | - |
| 1777759316 | 14.44° C | 100% | 1007.1 hPa | - | - | - | - |
| 1777758416 | 14.44° C | 100% | 1007.2 hPa | - | - | - | - |
| 1777757516 | 14.44° C | 100% | 1007.2 hPa | - | - | - | - |
| 1777756616 | 14.44° C | 100% | 1007.2 hPa | - | - | - | - |
| 1777753015 | 13.33° C | 100% | 1007.5 hPa | - | - | - | - |
| 1777752117 | 13.33° C | 100% | 1007.7 hPa | - | - | - | - |
| 1777747624 | 13.33° C | 100% | 1007.7 hPa | - | - | - | - |
| 1777738632 | 16.11° C | 84% | 1007.5 hPa | - | - | - | - |
| 1777737732 | 16.11° C | 95% | 1007.8 hPa | - | - | - | - |
| 1777735932 | 15.56° C | 95% | 1008.1 hPa | - | - | - | - |
| 1777735032 | 15.56° C | 91% | 1008.1 hPa | - | - | - | - |
| 1777734132 | 16.67° C | 88% | 1008.2 hPa | - | - | - | - |
| 1777733232 | 16.11° C | 83% | 1008.2 hPa | - | - | - | - |
| 1777732332 | 16.11° C | 83% | 1008.4 hPa | - | - | - | - |
| 1777731431 | 16.67° C | 100% | 1008.5 hPa | - | - | - | - |
| 1777730533 | 16.11° C | 100% | 1008.7 hPa | - | - | - | - |
| 1777729642 | 16.67° C | 100% | 1008.8 hPa | - | - | - | - |
* Rain since midnight (hover to see other rain measurements)
** Current wind speed in m/s (hover to see current wind gust speed)